Home > Weather > Thousand Oaks > Past weeks

Flag for U.S.A. Weather for the Past 2 Weeks in Thousand Oaks, California, U.S.A.

Now
55 °F

Clear.


Feels Like: 55 °F
Forecast: 56 / 85 °F
Wind: No wind

Location: Camarillo Airport

Current Time: Feb 10, 2016 at 5:46:27 AM

Latest Report: Feb 10, 2016 at 4:55 AM


Visibility: 10 mi

Pressure: 30.14 "Hg

Humidity: 42%

Dew point: 32 °F

Location of Thousand OaksLocation

Historic Weather in Thousand Oaks — Graph

°F

Thousand Oaks Temperature Yesterday

Maximum temperature yesterday: 91 °F (at 1:55 PM)
Minimum temperature yesterday: 53 °F (at 11:55 PM)
Average temperature yesterday: 74 °F

High & Low Weather Summary for the Past Weeks

 TemperatureHumidityPressure
High91 °F (Feb 9, 1:55 PM)93% (Jan 31, 7:55 AM)30.41 "Hg (Jan 31, 7:55 AM)
Low36 °F (Feb 2, 5:55 AM)8% (Feb 9, 1:55 PM)29.60 "Hg (Jan 31, 12:01 PM)
Average61 °F41%30.16 "Hg
* Reported Jan 26 4:55 AM — Feb 10 4:55 AM, Thousand Oaks, Weather by CustomWeather, © 2016

Note: Actual official high and low records may vary slightly from our data, if they occured in-between our weather recording intervals... More about our weather records

Advertising

Thousand Oaks Weather History for the Previous 24 Hours

 ConditionsComfort  
Time TempWeatherWind HumidityBarometerVisibility
4:55 AM
Wed, Feb 10
55 °FClear.No wind42%30.14 "Hg10 mi
3:55 AM54 °FClear.6 mph45%30.13 "Hg10 mi
2:55 AM51 °FClear.No wind54%30.14 "Hg10 mi
1:55 AM53 °FClear.5 mph52%30.14 "Hg10 mi
12:55 AM53 °FClear.No wind56%30.15 "Hg10 mi
11:55 PM
Tue, Feb 9
53 °FClear.3 mph61%30.15 "Hg10 mi
10:55 PM57 °FClear.6 mph55%30.15 "Hg10 mi
9:55 PM56 °FClear.No wind58%30.15 "Hg10 mi
8:55 PM60 °FClear.6 mph47%30.14 "Hg10 mi
7:55 PM65 °FClear.5 mph45%30.14 "Hg10 mi
6:55 PM68 °FClear.No wind40%30.14 "Hg10 mi
5:55 PM70 °FClear.6 mph31%30.10 "Hg10 mi
4:55 PM79 °FSunny.3 mph20%30.08 "Hg10 mi
3:55 PM83 °FSunny.6 mph17%30.09 "Hg10 mi
2:55 PM90 °FSunny.13 mph8%30.08 "Hg10 mi
1:55 PM91 °FSunny.14 mph8%30.09 "Hg10 mi
12:55 PM90 °FSunny.17 mph9%30.10 "Hg10 mi
11:55 AM89 °FSunny.21 mph9%30.14 "Hg10 mi
10:55 AM87 °FSunny.18 mph10%30.17 "Hg10 mi
9:55 AM83 °FSunny.18 mph12%30.18 "Hg10 mi
8:55 AM79 °FSunny.15 mph15%30.19 "Hg10 mi
6:55 AM70 °FSunny.13 mph18%30.16 "Hg10 mi
5:55 AM72 °FClear.15 mph17%30.15 "Hg10 mi
Weather by CustomWeather, © 2016

See weather overviewHow to use our weather pages